EN

Hourly Weather Kyzylsengir

Today, 28 July, Wednesday

Time Temperature Precipitation Wind Pressure Humidity
00:00 +28°C° 0 mm 4 mps 700 mmHg 29%
01:00 +27°C° 0 mm 3 mps 700 mmHg 31%
02:00 +26°C° 0 mm 3 mps 700 mmHg 34%
03:00 +25°C° 0 mm 2 mps 700 mmHg 35%
04:00 +25°C° 0 mm 2 mps 700 mmHg 36%
05:00 +24°C° 0 mm 2 mps 700 mmHg 37%
06:00 +26°C° 0 mm 2 mps 701 mmHg 32%
07:00 +28°C° 0 mm 3 mps 701 mmHg 27%
08:00 +30°C° 0 mm 3 mps 701 mmHg 22%
09:00 +33°C° 0 mm 3 mps 701 mmHg 20%
10:00 +34°C° 0 mm 3 mps 702 mmHg 18%
11:00 +36°C° 0 mm 3 mps 702 mmHg 16%
12:00 +37°C° 0 mm 3 mps 701 mmHg 15%
13:00 +38°C° 0 mm 3 mps 701 mmHg 14%
14:00 +39°C° 0 mm 3 mps 701 mmHg 13%
15:00 +39°C° 0 mm 2 mps 700 mmHg 13%
16:00 +40°C° 0 mm 2 mps 700 mmHg 13%
17:00 +39°C° 0 mm 2 mps 700 mmHg 14%
18:00 +37°C° 0 mm 2 mps 700 mmHg 16%
19:00 +35°C° 0 mm 2 mps 700 mmHg 19%
20:00 +32°C° 0 mm 2 mps 700 mmHg 22%
21:00 +30°C° 0 mm 2 mps 700 mmHg 23%
22:00 +29°C° 0 mm 2 mps 700 mmHg 25%
23:00 +28°C° 0 mm 2 mps 700 mmHg 27%

Tomorrow, 29 July, Thursday

Time Temperature Precipitation Wind Pressure Humidity
00:00 +27°C° 0 mm 2 mps 700 mmHg 27%
01:00 +27°C° 0 mm 2 mps 700 mmHg 28%
02:00 +26°C° 0 mm 1 mps 700 mmHg 29%
03:00 +26°C° 0 mm 1 mps 701 mmHg 30%
04:00 +25°C° 0 mm 1 mps 701 mmHg 31%
05:00 +24°C° 0 mm 2 mps 701 mmHg 31%
06:00 +26°C° 0 mm 2 mps 701 mmHg 28%
07:00 +28°C° 0 mm 2 mps 702 mmHg 24%
08:00 +30°C° 0 mm 3 mps 702 mmHg 20%
09:00 +31°C° 0 mm 3 mps 702 mmHg 19%
10:00 +34°C° 0 mm 3 mps 702 mmHg 17%
11:00 +36°C° 0 mm 3 mps 702 mmHg 16%
12:00 +37°C° 0 mm 4 mps 702 mmHg 14%
13:00 +38°C° 0 mm 4 mps 702 mmHg 12%
14:00 +40°C° 0 mm 4 mps 702 mmHg 11%
15:00 +40°C° 0 mm 4 mps 702 mmHg 11%
16:00 +39°C° 0 mm 5 mps 702 mmHg 11%
17:00 +39°C° 0 mm 5 mps 701 mmHg 12%
18:00 +36°C° 0 mm 4 mps 702 mmHg 14%
19:00 +34°C° 0 mm 3 mps 702 mmHg 16%
20:00 +30°C° 0 mm 3 mps 702 mmHg 18%
21:00 +29°C° 0 mm 2 mps 702 mmHg 20%
22:00 +29°C° 0 mm 2 mps 702 mmHg 21%
23:00 +28°C° 0 mm 2 mps 702 mmHg 22%

Day after tomorrow, 30 July, Friday

Time Temperature Precipitation Wind Pressure Humidity
00:00 +27°C° 0 mm 2 mps 702 mmHg 22%
01:00 +27°C° 0 mm 2 mps 702 mmHg 23%
02:00 +27°C° 0 mm 2 mps 702 mmHg 23%
03:00 +27°C° 0 mm 2 mps 702 mmHg 24%
04:00 +26°C° 0 mm 1 mps 703 mmHg 25%
05:00 +25°C° 0 mm 1 mps 703 mmHg 26%
06:00 +26°C° 0 mm 2 mps 703 mmHg 24%
07:00 +27°C° 0 mm 2 mps 704 mmHg 23%
08:00 +29°C° 0 mm 3 mps 705 mmHg 21%
09:00 +30°C° 0 mm 3 mps 705 mmHg 19%
10:00 +33°C° 0 mm 3 mps 705 mmHg 18%
11:00 +34°C° 0 mm 3 mps 705 mmHg 16%
12:00 +35°C° 0 mm 3 mps 705 mmHg 14%
13:00 +36°C° 0 mm 3 mps 705 mmHg 13%
14:00 +38°C° 0 mm 3 mps 705 mmHg 11%
15:00 +38°C° 0 mm 3 mps 704 mmHg 11%
16:00 +38°C° 0 mm 4 mps 704 mmHg 10%
17:00 +39°C° 0 mm 5 mps 704 mmHg 10%
18:00 +36°C° 0 mm 5 mps 704 mmHg 13%
19:00 +34°C° 0 mm 6 mps 703 mmHg 15%
20:00 +32°C° 0 mm 7 mps 703 mmHg 18%
21:00 +30°C° 0 mm 6 mps 703 mmHg 20%
22:00 +28°C° 0 mm 5 mps 703 mmHg 22%
23:00 +27°C° 0 mm 4 mps 703 mmHg 23%

31 July, Saturday

Time Temperature Precipitation Wind Pressure Humidity
00:00 +26°C° 0 mm 4 mps 703 mmHg 24%
01:00 +26°C° 0 mm 3 mps 703 mmHg 24%
02:00 +25°C° 0 mm 2 mps 702 mmHg 24%
03:00 +25°C° 0 mm 2 mps 702 mmHg 24%
04:00 +24°C° 0 mm 2 mps 703 mmHg 25%
05:00 +24°C° 0 mm 2 mps 703 mmHg 25%
06:00 +26°C° 0 mm 2 mps 703 mmHg 22%
07:00 +28°C° 0 mm 2 mps 704 mmHg 19%
08:00 +30°C° 0 mm 2 mps 704 mmHg 17%
09:00 +33°C° 0 mm 3 mps 704 mmHg 15%
10:00 +35°C° 0 mm 3 mps 704 mmHg 13%
11:00 +37°C° 0 mm 3 mps 704 mmHg 12%
12:00 +38°C° 0 mm 3 mps 704 mmHg 11%
13:00 +39°C° 0 mm 3 mps 704 mmHg 10%
14:00 +40°C° 0 mm 3 mps 703 mmHg 9%
15:00 +40°C° 0 mm 3 mps 703 mmHg 9%
16:00 +40°C° 0 mm 3 mps 703 mmHg 9%
17:00 +41°C° 0 mm 4 mps 702 mmHg 9%
18:00 +38°C° 0 mm 4 mps 702 mmHg 11%
19:00 +36°C° 0 mm 4 mps 702 mmHg 12%
20:00 +33°C° 0 mm 3 mps 702 mmHg 14%
21:00 +31°C° 0 mm 3 mps 702 mmHg 15%
22:00 +30°C° 0 mm 3 mps 701 mmHg 16%
23:00 +29°C° 0 mm 3 mps 701 mmHg 18%

1 August, Sunday

Time Temperature Precipitation Wind Pressure Humidity
00:00 +28°C° 0 mm 3 mps 701 mmHg 18%
01:00 +28°C° 0 mm 2 mps 701 mmHg 19%
02:00 +27°C° 0 mm 2 mps 701 mmHg 19%
03:00 +27°C° 0 mm 2 mps 701 mmHg 20%
04:00 +27°C° 0 mm 2 mps 701 mmHg 20%
05:00 +26°C° 0 mm 2 mps 701 mmHg 21%
06:00 +29°C° 0 mm 2 mps 701 mmHg 19%
07:00 +31°C° 0 mm 2 mps 702 mmHg 16%
08:00 +34°C° 0 mm 3 mps 702 mmHg 14%
09:00 +36°C° 0 mm 3 mps 702 mmHg 13%
10:00 +37°C° 0 mm 3 mps 702 mmHg 11%
11:00 +40°C° 0 mm 4 mps 702 mmHg 9%
12:00 +41°C° 0 mm 4 mps 702 mmHg 9%
13:00 +42°C° 0 mm 4 mps 702 mmHg 8%
14:00 +43°C° 0 mm 3 mps 701 mmHg 8%
15:00 +43°C° 0 mm 4 mps 701 mmHg 8%
16:00 +43°C° 0 mm 4 mps 701 mmHg 8%
17:00 +43°C° 0 mm 4 mps 701 mmHg 9%
18:00 +40°C° 0 mm 4 mps 700 mmHg 10%
19:00 +37°C° 0 mm 3 mps 700 mmHg 12%
20:00 +34°C° 0 mm 3 mps 700 mmHg 13%
21:00 +33°C° 0 mm 3 mps 700 mmHg 15%
22:00 +31°C° 0 mm 3 mps 700 mmHg 16%
23:00 +29°C° 0 mm 3 mps 700 mmHg 17%

2 August, Monday

Time Temperature Precipitation Wind Pressure Humidity
00:00 +29°C° 0 mm 2 mps 700 mmHg 19%
01:00 +29°C° 0 mm 2 mps 700 mmHg 21%
02:00 +28°C° 0 mm 2 mps 700 mmHg 23%
03:00 +28°C° 0 mm 2 mps 700 mmHg 24%
04:00 +28°C° 0 mm 2 mps 700 mmHg 24%
05:00 +27°C° 0 mm 2 mps 700 mmHg 25%
06:00 +29°C° 0 mm 2 mps 700 mmHg 22%
07:00 +32°C° 0 mm 2 mps 701 mmHg 18%
08:00 +35°C° 0 mm 2 mps 701 mmHg 15%
09:00 +36°C° 0 mm 3 mps 701 mmHg 13%
10:00 +38°C° 0 mm 3 mps 702 mmHg 10%
11:00 +41°C° 0 mm 4 mps 702 mmHg 8%
12:00 +42°C° 0 mm 4 mps 702 mmHg 7%
13:00 +43°C° 0 mm 4 mps 702 mmHg 7%
14:00 +43°C° 0 mm 3 mps 701 mmHg 6%
15:00 +43°C° 0 mm 3 mps 701 mmHg 6%
16:00 +43°C° 0 mm 3 mps 701 mmHg 5%
17:00 +43°C° 0 mm 2 mps 701 mmHg 5%
18:00 +40°C° 0 mm 2 mps 701 mmHg 6%
19:00 +37°C° 0 mm 3 mps 700 mmHg 8%
20:00 +35°C° 0 mm 3 mps 700 mmHg 9%
21:00 +33°C° 0 mm 3 mps 700 mmHg 10%
22:00 +31°C° 0 mm 3 mps 700 mmHg 10%
23:00 +30°C° 0 mm 3 mps 701 mmHg 10%
Show more